owner,sensor,date,latitude,longitude,air_pressure(mBar),qcFlag 
TCOON,ioos:station:TCOON:013:1,2016-01-04T14:12:00Z,27.4847,-97.3181,1026.7,1111122 
TCOON,ioos:station:TCOON:013:1,2016-01-04T15:12:00Z,27.4847,-97.3181,1027.4,1111122 
TCOON,ioos:station:TCOON:013:1,2016-01-04T16:12:00Z,27.4847,-97.3181,1028.2,1111122 
TCOON,ioos:station:TCOON:013:1,2016-01-04T17:12:00Z,27.4847,-97.3181,1028.0,1111122 
TCOON,ioos:station:TCOON:013:1,2016-01-04T18:12:00Z,27.4847,-97.3181,1027.1,1111122 
TCOON,ioos:station:TCOON:013:1,2016-01-04T19:12:00Z,27.4847,-97.3181,1025.7,1111122 
TCOON,ioos:station:TCOON:013:1,2016-01-04T20:12:00Z,27.4847,-97.3181,1024.8,1111122 
TCOON,ioos:station:TCOON:013:1,2016-01-04T21:30:00Z,27.4847,-97.3181,1024.6,1111122 
TCOON,ioos:station:TCOON:013:1,2016-01-04T22:12:00Z,27.4847,-97.3181,1024.5,1111122 
TCOON,ioos:station:TCOON:013:1,2016-01-04T23:12:00Z,27.4847,-97.3181,1024.6,1111122 
TCOON,ioos:station:TCOON:013:1,2016-01-05T16:18:00Z,27.4847,-97.3181,1024.4,1111122 
TCOON,ioos:station:TCOON:013:1,2016-01-06T15:12:00Z,27.4847,-97.3181,1019.1,1111122 
TCOON,ioos:station:TCOON:013:1,2016-01-06T16:12:00Z,27.4847,-97.3181,1019.0,1111122 
TCOON,ioos:station:TCOON:013:1,2016-01-06T17:12:00Z,27.4847,-97.3181,1018.4,1111122 
TCOON,ioos:station:TCOON:013:1,2016-01-06T18:12:00Z,27.4847,-97.3181,1016.9,1111122 
TCOON,ioos:station:TCOON:013:1,2016-01-06T19:12:00Z,27.4847,-97.3181,1015.0,1111122 
TCOON,ioos:station:TCOON:013:1,2016-01-06T20:12:00Z,27.4847,-97.3181,1014.1,1111122 
TCOON,ioos:station:TCOON:013:1,2016-01-06T21:12:00Z,27.4847,-97.3181,1013.4,1111122 
TCOON,ioos:station:TCOON:013:1,2016-01-06T22:12:00Z,27.4847,-97.3181,1012.9,1111122 
TCOON,ioos:station:TCOON:013:1,2016-01-06T23:12:00Z,27.4847,-97.3181,1012.8,1111122 
TCOON,ioos:station:TCOON:013:1,2016-01-07T00:12:00Z,27.4847,-97.3181,1013.3,1111122 
TCOON,ioos:station:TCOON:013:1,2016-01-07T19:30:00Z,27.4847,-97.3181,1012.7,1111122 
TCOON,ioos:station:TCOON:013:1,2016-01-07T20:12:00Z,27.4847,-97.3181,1011.9,1111122 
TCOON,ioos:station:TCOON:013:1,2016-01-07T21:12:00Z,27.4847,-97.3181,1011.3,1111122 
TCOON,ioos:station:TCOON:013:1,2016-01-07T22:12:00Z,27.4847,-97.3181,1011.2,1111122 
TCOON,ioos:station:TCOON:013:1,2016-01-07T23:12:00Z,27.4847,-97.3181,1011.7,1111122 
TCOON,ioos:station:TCOON:013:1,2016-01-09T13:54:00Z,27.4847,-97.3181,1014.4,1111122 
TCOON,ioos:station:TCOON:013:1,2016-01-09T14:12:00Z,27.4847,-97.3181,1014.6,1111122 
TCOON,ioos:station:TCOON:013:1,2016-01-09T15:12:00Z,27.4847,-97.3181,1015.7,1111122 
TCOON,ioos:station:TCOON:013:1,2016-01-09T16:12:00Z,27.4847,-97.3181,1016.1,1111122 
TCOON,ioos:station:TCOON:013:1,2016-01-09T17:12:00Z,27.4847,-97.3181,1016.3,1111122 
TCOON,ioos:station:TCOON:013:1,2016-01-09T18:18:00Z,27.4847,-97.3181,1016.0,1111122 
TCOON,ioos:station:TCOON:013:1,2016-01-09T19:12:00Z,27.4847,-97.3181,1015.4,1111122 
TCOON,ioos:station:TCOON:013:1,2016-01-09T20:12:00Z,27.4847,-97.3181,1014.9,1111122 
TCOON,ioos:station:TCOON:013:1,2016-01-09T21:12:00Z,27.4847,-97.3181,1015.0,1111122 
TCOON,ioos:station:TCOON:013:1,2016-01-09T22:12:00Z,27.4847,-97.3181,1015.5,1111122 
TCOON,ioos:station:TCOON:013:1,2016-01-09T23:12:00Z,27.4847,-97.3181,1016.3,1111122 
TCOON,ioos:station:TCOON:013:1,2016-01-10T00:12:00Z,27.4847,-97.3181,1017.4,1111122 
TCOON,ioos:station:TCOON:013:1,2016-01-10T01:12:00Z,27.4847,-97.3181,1018.3,1111122 
TCOON,ioos:station:TCOON:013:1,2016-01-10T02:12:00Z,27.4847,-97.3181,1019.6,1111122 
TCOON,ioos:station:TCOON:013:1,2016-01-10T03:12:00Z,27.4847,-97.3181,1020.7,1111122 
TCOON,ioos:station:TCOON:013:1,2016-01-10T04:12:00Z,27.4847,-97.3181,1021.4,1111122 
TCOON,ioos:station:TCOON:013:1,2016-01-10T05:12:00Z,27.4847,-97.3181,1021.5,1111122 
TCOON,ioos:station:TCOON:013:1,2016-01-10T06:12:00Z,27.4847,-97.3181,1021.7,1111122 
TCOON,ioos:station:TCOON:013:1,2016-01-10T07:12:00Z,27.4847,-97.3181,1022.3,1111122 
TCOON,ioos:station:TCOON:013:1,2016-01-10T08:12:00Z,27.4847,-97.3181,1022.4,1111122 
TCOON,ioos:station:TCOON:013:1,2016-01-10T09:18:00Z,27.4847,-97.3181,1023.8,1111122 
TCOON,ioos:station:TCOON:013:1,2016-01-10T10:12:00Z,27.4847,-97.3181,1024.9,1111122 
TCOON,ioos:station:TCOON:013:1,2016-01-10T11:12:00Z,27.4847,-97.3181,1025.4,1111122 
TCOON,ioos:station:TCOON:013:1,2016-01-10T12:12:00Z,27.4847,-97.3181,1026.3,1111122 
TCOON,ioos:station:TCOON:013:1,2016-01-10T13:36:00Z,27.4847,-97.3181,1027.5,1111122 
TCOON,ioos:station:TCOON:013:1,2016-01-10T14:12:00Z,27.4847,-97.3181,1028.1,1111122 
TCOON,ioos:station:TCOON:013:1,2016-01-10T15:12:00Z,27.4847,-97.3181,1028.9,1111122 
TCOON,ioos:station:TCOON:013:1,2016-01-10T16:18:00Z,27.4847,-97.3181,1029.3,1111122 
TCOON,ioos:station:TCOON:013:1,2016-01-10T17:18:00Z,27.4847,-97.3181,1028.7,1111122 
TCOON,ioos:station:TCOON:013:1,2016-01-10T18:18:00Z,27.4847,-97.3181,1027.5,1111122 
TCOON,ioos:station:TCOON:013:1,2016-01-10T19:18:00Z,27.4847,-97.3181,1025.9,1111122 
TCOON,ioos:station:TCOON:013:1,2016-01-10T20:24:00Z,27.4847,-97.3181,1024.9,1111122 
TCOON,ioos:station:TCOON:013:1,2016-01-10T21:12:00Z,27.4847,-97.3181,1024.7,1111122 
TCOON,ioos:station:TCOON:013:1,2016-01-10T22:12:00Z,27.4847,-97.3181,1024.4,1111122 
TCOON,ioos:station:TCOON:013:1,2016-01-10T23:12:00Z,27.4847,-97.3181,1024.3,1111122 
TCOON,ioos:station:TCOON:013:1,2016-01-11T00:12:00Z,27.4847,-97.3181,1024.2,1111122 
TCOON,ioos:station:TCOON:013:1,2016-01-11T01:12:00Z,27.4847,-97.3181,1024.0,1111122 
TCOON,ioos:station:TCOON:013:1,2016-01-11T02:12:00Z,27.4847,-97.3181,1024.7,1111122 
TCOON,ioos:station:TCOON:013:1,2016-01-11T03:12:00Z,27.4847,-97.3181,1025.5,1111122 
TCOON,ioos:station:TCOON:013:1,2016-01-11T04:12:00Z,27.4847,-97.3181,1025.2,1111122 
TCOON,ioos:station:TCOON:013:1,2016-01-11T05:12:00Z,27.4847,-97.3181,1024.3,1111122 
TCOON,ioos:station:TCOON:013:1,2016-01-11T06:12:00Z,27.4847,-97.3181,1024.2,1111122 
TCOON,ioos:station:TCOON:013:1,2016-01-11T07:12:00Z,27.4847,-97.3181,1023.4,1111122 
TCOON,ioos:station:TCOON:013:1,2016-01-11T08:12:00Z,27.4847,-97.3181,1022.9,1111122 
TCOON,ioos:station:TCOON:013:1,2016-01-11T09:18:00Z,27.4847,-97.3181,1022.1,1111122 
TCOON,ioos:station:TCOON:013:1,2016-01-11T10:12:00Z,27.4847,-97.3181,1022.1,1111122 
TCOON,ioos:station:TCOON:013:1,2016-01-11T11:12:00Z,27.4847,-97.3181,1021.6,1111122 
TCOON,ioos:station:TCOON:013:1,2016-01-11T12:12:00Z,27.4847,-97.3181,1022.3,1111122 
TCOON,ioos:station:TCOON:013:1,2016-01-11T13:12:00Z,27.4847,-97.3181,1022.5,1111122 
TCOON,ioos:station:TCOON:013:1,2016-01-11T14:12:00Z,27.4847,-97.3181,1022.7,1111122 
TCOON,ioos:station:TCOON:013:1,2016-01-11T15:12:00Z,27.4847,-97.3181,1023.1,1111122 
TCOON,ioos:station:TCOON:013:1,2016-01-11T16:12:00Z,27.4847,-97.3181,1023.5,1111122 
TCOON,ioos:station:TCOON:013:1,2016-01-11T17:12:00Z,27.4847,-97.3181,1023.0,1111122 
TCOON,ioos:station:TCOON:013:1,2016-01-11T18:12:00Z,27.4847,-97.3181,1022.0,1111122 
TCOON,ioos:station:TCOON:013:1,2016-01-11T19:12:00Z,27.4847,-97.3181,1020.9,1111122 
TCOON,ioos:station:TCOON:013:1,2016-01-11T20:12:00Z,27.4847,-97.3181,1020.3,1111122 
TCOON,ioos:station:TCOON:013:1,2016-01-11T21:12:00Z,27.4847,-97.3181,1020.2,1111122 
TCOON,ioos:station:TCOON:013:1,2016-01-11T22:12:00Z,27.4847,-97.3181,1020.3,1111122 
TCOON,ioos:station:TCOON:013:1,2016-01-11T23:12:00Z,27.4847,-97.3181,1021.2,1111122 
TCOON,ioos:station:TCOON:013:1,2016-01-12T00:12:00Z,27.4847,-97.3181,1021.9,1111122 
TCOON,ioos:station:TCOON:013:1,2016-01-12T01:12:00Z,27.4847,-97.3181,1022.7,1111122 
TCOON,ioos:station:TCOON:013:1,2016-01-12T02:12:00Z,27.4847,-97.3181,1023.5,1111122 
TCOON,ioos:station:TCOON:013:1,2016-01-12T14:36:00Z,27.4847,-97.3181,1026.9,1111122 
TCOON,ioos:station:TCOON:013:1,2016-01-12T15:12:00Z,27.4847,-97.3181,1027.3,1111122 
TCOON,ioos:station:TCOON:013:1,2016-01-12T18:12:00Z,27.4847,-97.3181,1027.1,1111122 
TCOON,ioos:station:TCOON:013:1,2016-01-12T21:12:00Z,27.4847,-97.3181,1024.6,1111122 
TCOON,ioos:station:TCOON:013:1,2016-01-13T00:12:00Z,27.4847,-97.3181,1025.1,1111122 
TCOON,ioos:station:TCOON:013:1,2016-01-13T01:12:00Z,27.4847,-97.3181,1025.4,1111122 
TCOON,ioos:station:TCOON:013:1,2016-01-13T03:12:00Z,27.4847,-97.3181,1025.9,1111122 
TCOON,ioos:station:TCOON:013:1,2016-01-13T04:18:00Z,27.4847,-97.3181,1025.8,1111122 
TCOON,ioos:station:TCOON:013:1,2016-01-13T05:12:00Z,27.4847,-97.3181,1025.3,1111122 
TCOON,ioos:station:TCOON:013:1,2016-01-13T06:12:00Z,27.4847,-97.3181,1024.8,1111122 
TCOON,ioos:station:TCOON:013:1,2016-01-13T07:12:00Z,27.4847,-97.3181,1024.4,1111122 
TCOON,ioos:station:TCOON:013:1,2016-01-13T08:12:00Z,27.4847,-97.3181,1024.2,1111122 
TCOON,ioos:station:TCOON:013:1,2016-01-13T09:18:00Z,27.4847,-97.3181,1023.6,1111122 
TCOON,ioos:station:TCOON:013:1,2016-01-13T10:12:00Z,27.4847,-97.3181,1023.0,1111122 
TCOON,ioos:station:TCOON:013:1,2016-01-13T12:18:00Z,27.4847,-97.3181,1023.1,1111122 
TCOON,ioos:station:TCOON:013:1,2016-01-13T13:12:00Z,27.4847,-97.3181,1023.2,1111122 
TCOON,ioos:station:TCOON:013:1,2016-01-13T14:12:00Z,27.4847,-97.3181,1023.5,1111122 
TCOON,ioos:station:TCOON:013:1,2016-01-13T15:12:00Z,27.4847,-97.3181,1024.4,1111122 
TCOON,ioos:station:TCOON:013:1,2016-01-13T17:06:00Z,27.4847,-97.3181,1024.3,1111122 
TCOON,ioos:station:TCOON:013:1,2016-01-13T18:12:00Z,27.4847,-97.3181,1022.8,1111122 
TCOON,ioos:station:TCOON:013:1,2016-01-13T19:12:00Z,27.4847,-97.3181,1021.3,1111122 
TCOON,ioos:station:TCOON:013:1,2016-01-13T20:12:00Z,27.4847,-97.3181,1020.3,1111122 
TCOON,ioos:station:TCOON:013:1,2016-01-13T21:12:00Z,27.4847,-97.3181,1019.4,1111122 
TCOON,ioos:station:TCOON:013:1,2016-01-13T23:36:00Z,27.4847,-97.3181,1019.6,1111122 
TCOON,ioos:station:TCOON:013:1,2016-01-14T00:24:00Z,27.4847,-97.3181,1019.1,1111122 
TCOON,ioos:station:TCOON:013:1,2016-01-14T01:12:00Z,27.4847,-97.3181,1019.1,1111122 
TCOON,ioos:station:TCOON:013:1,2016-01-14T02:12:00Z,27.4847,-97.3181,1018.9,1111122 
TCOON,ioos:station:TCOON:013:1,2016-01-14T03:12:00Z,27.4847,-97.3181,1018.6,1111122 
TCOON,ioos:station:TCOON:013:1,2016-01-14T04:12:00Z,27.4847,-97.3181,1018.3,1111122 
TCOON,ioos:station:TCOON:013:1,2016-01-14T05:12:00Z,27.4847,-97.3181,1018.1,1111122 
TCOON,ioos:station:TCOON:013:1,2016-01-14T06:12:00Z,27.4847,-97.3181,1017.5,1111122 
TCOON,ioos:station:TCOON:013:1,2016-01-14T07:12:00Z,27.4847,-97.3181,1016.3,1111122 
TCOON,ioos:station:TCOON:013:1,2016-01-14T08:12:00Z,27.4847,-97.3181,1015.4,1111122 
TCOON,ioos:station:TCOON:013:1,2016-01-14T09:30:00Z,27.4847,-97.3181,1014.8,1111122 
TCOON,ioos:station:TCOON:013:1,2016-01-14T10:12:00Z,27.4847,-97.3181,1014.5,1111122 
TCOON,ioos:station:TCOON:013:1,2016-01-14T11:12:00Z,27.4847,-97.3181,1014.2,1111122 
TCOON,ioos:station:TCOON:013:1,2016-01-14T12:12:00Z,27.4847,-97.3181,1014.2,1111122 
TCOON,ioos:station:TCOON:013:1,2016-01-14T13:12:00Z,27.4847,-97.3181,1014.1,1111122 
TCOON,ioos:station:TCOON:013:1,2016-01-14T14:12:00Z,27.4847,-97.3181,1014.4,1111122 
TCOON,ioos:station:TCOON:013:1,2016-01-14T15:12:00Z,27.4847,-97.3181,1014.8,1111122 
TCOON,ioos:station:TCOON:013:1,2016-01-14T16:12:00Z,27.4847,-97.3181,1015.1,1111122 
TCOON,ioos:station:TCOON:013:1,2016-01-14T17:12:00Z,27.4847,-97.3181,1014.7,1111122 
TCOON,ioos:station:TCOON:013:1,2016-01-14T18:12:00Z,27.4847,-97.3181,1013.5,1111122 
TCOON,ioos:station:TCOON:013:1,2016-01-14T19:12:00Z,27.4847,-97.3181,1011.8,1111122 
TCOON,ioos:station:TCOON:013:1,2016-01-14T20:12:00Z,27.4847,-97.3181,1010.6,1111122 
TCOON,ioos:station:TCOON:013:1,2016-01-14T21:12:00Z,27.4847,-97.3181,1009.7,1111122 
TCOON,ioos:station:TCOON:013:1,2016-01-14T22:12:00Z,27.4847,-97.3181,1009.4,1111122 
TCOON,ioos:station:TCOON:013:1,2016-01-14T23:12:00Z,27.4847,-97.3181,1009.3,1111122 
TCOON,ioos:station:TCOON:013:1,2016-01-15T00:12:00Z,27.4847,-97.3181,1009.1,1111122 
TCOON,ioos:station:TCOON:013:1,2016-01-15T01:12:00Z,27.4847,-97.3181,1009.1,1111122 
TCOON,ioos:station:TCOON:013:1,2016-01-15T02:12:00Z,27.4847,-97.3181,1009.1,1111122 
TCOON,ioos:station:TCOON:013:1,2016-01-15T03:12:00Z,27.4847,-97.3181,1009.1,1111122 
TCOON,ioos:station:TCOON:013:1,2016-01-15T04:12:00Z,27.4847,-97.3181,1009.1,1111122 
TCOON,ioos:station:TCOON:013:1,2016-01-15T05:12:00Z,27.4847,-97.3181,1008.9,1111122 
TCOON,ioos:station:TCOON:013:1,2016-01-15T06:12:00Z,27.4847,-97.3181,1008.6,1111122 
TCOON,ioos:station:TCOON:013:1,2016-01-15T07:12:00Z,27.4847,-97.3181,1008.7,1111122 
TCOON,ioos:station:TCOON:013:1,2016-01-15T08:12:00Z,27.4847,-97.3181,1008.4,1111122 
TCOON,ioos:station:TCOON:013:1,2016-01-15T09:30:00Z,27.4847,-97.3181,1008.0,1111122 
TCOON,ioos:station:TCOON:013:1,2016-01-15T10:12:00Z,27.4847,-97.3181,1007.7,1111122 
TCOON,ioos:station:TCOON:013:1,2016-01-15T11:12:00Z,27.4847,-97.3181,1008.5,1111122 
TCOON,ioos:station:TCOON:013:1,2016-01-15T12:12:00Z,27.4847,-97.3181,1009.2,1111122 
TCOON,ioos:station:TCOON:013:1,2016-01-15T14:18:00Z,27.4847,-97.3181,1010.3,1111122 
TCOON,ioos:station:TCOON:013:1,2016-01-15T16:12:00Z,27.4847,-97.3181,1011.5,1111122 
TCOON,ioos:station:TCOON:013:1,2016-01-15T17:12:00Z,27.4847,-97.3181,1011.7,1111122 
TCOON,ioos:station:TCOON:013:1,2016-01-15T18:12:00Z,27.4847,-97.3181,1011.2,1111122 
TCOON,ioos:station:TCOON:013:1,2016-01-15T19:12:00Z,27.4847,-97.3181,1010.0,1111122 
TCOON,ioos:station:TCOON:013:1,2016-01-15T20:12:00Z,27.4847,-97.3181,1009.3,1111122 
TCOON,ioos:station:TCOON:013:1,2016-01-15T21:36:00Z,27.4847,-97.3181,1008.7,1111122 
TCOON,ioos:station:TCOON:013:1,2016-01-15T22:12:00Z,27.4847,-97.3181,1008.8,1111122 
TCOON,ioos:station:TCOON:013:1,2016-01-15T23:12:00Z,27.4847,-97.3181,1009.1,1111122 
TCOON,ioos:station:TCOON:013:1,2016-01-16T00:12:00Z,27.4847,-97.3181,1009.2,1111122 
TCOON,ioos:station:TCOON:013:1,2016-01-16T01:12:00Z,27.4847,-97.3181,1009.3,1111122 
TCOON,ioos:station:TCOON:013:1,2016-01-16T02:12:00Z,27.4847,-97.3181,1009.5,1111122 
TCOON,ioos:station:TCOON:013:1,2016-01-16T03:18:00Z,27.4847,-97.3181,1010.0,1111122 
TCOON,ioos:station:TCOON:013:1,2016-01-16T04:12:00Z,27.4847,-97.3181,1009.8,1111122 
TCOON,ioos:station:TCOON:013:1,2016-01-16T05:12:00Z,27.4847,-97.3181,1009.2,1111122 
TCOON,ioos:station:TCOON:013:1,2016-01-16T06:18:00Z,27.4847,-97.3181,1008.3,1111122 
TCOON,ioos:station:TCOON:013:1,2016-01-16T07:12:00Z,27.4847,-97.3181,1007.8,1111122 
TCOON,ioos:station:TCOON:013:1,2016-01-16T08:12:00Z,27.4847,-97.3181,1007.4,1111122 
TCOON,ioos:station:TCOON:013:1,2016-01-16T09:24:00Z,27.4847,-97.3181,1007.0,1111122 
TCOON,ioos:station:TCOON:013:1,2016-01-16T10:12:00Z,27.4847,-97.3181,1006.9,1111122 
TCOON,ioos:station:TCOON:013:1,2016-01-16T11:12:00Z,27.4847,-97.3181,1006.5,1111122 
TCOON,ioos:station:TCOON:013:1,2016-01-16T12:12:00Z,27.4847,-97.3181,1006.4,1111122 
TCOON,ioos:station:TCOON:013:1,2016-01-16T13:12:00Z,27.4847,-97.3181,1007.1,1111122 
TCOON,ioos:station:TCOON:013:1,2016-01-16T14:12:00Z,27.4847,-97.3181,1008.3,1111122 
TCOON,ioos:station:TCOON:013:1,2016-01-16T15:12:00Z,27.4847,-97.3181,1008.2,1111122 
TCOON,ioos:station:TCOON:013:1,2016-01-16T16:12:00Z,27.4847,-97.3181,1008.6,1111122 
TCOON,ioos:station:TCOON:013:1,2016-01-16T17:12:00Z,27.4847,-97.3181,1008.1,1111122 
TCOON,ioos:station:TCOON:013:1,2016-01-16T19:12:00Z,27.4847,-97.3181,1008.5,1111122 
TCOON,ioos:station:TCOON:013:1,2016-01-16T20:12:00Z,27.4847,-97.3181,1008.7,1111122 
TCOON,ioos:station:TCOON:013:1,2016-01-16T21:12:00Z,27.4847,-97.3181,1010.3,1111122 
TCOON,ioos:station:TCOON:013:1,2016-01-16T22:12:00Z,27.4847,-97.3181,1011.2,1111122 
TCOON,ioos:station:TCOON:013:1,2016-01-16T23:12:00Z,27.4847,-97.3181,1011.8,1111122 
TCOON,ioos:station:TCOON:013:1,2016-01-17T00:12:00Z,27.4847,-97.3181,1013.1,1111122 
TCOON,ioos:station:TCOON:013:1,2016-01-17T01:12:00Z,27.4847,-97.3181,1015.2,1111122 
TCOON,ioos:station:TCOON:013:1,2016-01-17T02:12:00Z,27.4847,-97.3181,1017.0,1111122 
TCOON,ioos:station:TCOON:013:1,2016-01-17T03:12:00Z,27.4847,-97.3181,1019.2,1111122 
TCOON,ioos:station:TCOON:013:1,2016-01-17T04:12:00Z,27.4847,-97.3181,1020.1,1111122 
TCOON,ioos:station:TCOON:013:1,2016-01-17T05:12:00Z,27.4847,-97.3181,1020.3,1111122 
TCOON,ioos:station:TCOON:013:1,2016-01-17T06:18:00Z,27.4847,-97.3181,1020.9,1111122 
TCOON,ioos:station:TCOON:013:1,2016-01-17T08:12:00Z,27.4847,-97.3181,1020.0,1111122 
TCOON,ioos:station:TCOON:013:1,2016-01-17T09:36:00Z,27.4847,-97.3181,1020.4,1111122 
TCOON,ioos:station:TCOON:013:1,2016-01-17T10:12:00Z,27.4847,-97.3181,1020.8,1111122 
TCOON,ioos:station:TCOON:013:1,2016-01-17T11:12:00Z,27.4847,-97.3181,1021.8,1111122 
TCOON,ioos:station:TCOON:013:1,2016-01-17T12:12:00Z,27.4847,-97.3181,1022.6,1111122 
TCOON,ioos:station:TCOON:013:1,2016-01-17T13:12:00Z,27.4847,-97.3181,1023.6,1111122 
TCOON,ioos:station:TCOON:013:1,2016-01-17T14:12:00Z,27.4847,-97.3181,1024.5,1111122 
TCOON,ioos:station:TCOON:013:1,2016-01-17T15:12:00Z,27.4847,-97.3181,1024.6,1111122 
TCOON,ioos:station:TCOON:013:1,2016-01-17T16:12:00Z,27.4847,-97.3181,1024.8,1111122 
TCOON,ioos:station:TCOON:013:1,2016-01-17T17:12:00Z,27.4847,-97.3181,1024.7,1111122 
TCOON,ioos:station:TCOON:013:1,2016-01-17T18:12:00Z,27.4847,-97.3181,1023.9,1111122 
TCOON,ioos:station:TCOON:013:1,2016-01-17T19:12:00Z,27.4847,-97.3181,1022.6,1111122 
TCOON,ioos:station:TCOON:013:1,2016-01-17T20:12:00Z,27.4847,-97.3181,1021.6,1111122 
TCOON,ioos:station:TCOON:013:1,2016-01-17T21:12:00Z,27.4847,-97.3181,1020.9,1111122 
TCOON,ioos:station:TCOON:013:1,2016-01-17T22:12:00Z,27.4847,-97.3181,1020.7,1111122 
TCOON,ioos:station:TCOON:013:1,2016-01-17T23:12:00Z,27.4847,-97.3181,1020.5,1111122 
TCOON,ioos:station:TCOON:013:1,2016-01-18T00:42:00Z,27.4847,-97.3181,1021.1,1111122 
TCOON,ioos:station:TCOON:013:1,2016-01-18T01:12:00Z,27.4847,-97.3181,1021.4,1111122 
TCOON,ioos:station:TCOON:013:1,2016-01-18T02:12:00Z,27.4847,-97.3181,1021.2,1111122 
TCOON,ioos:station:TCOON:013:1,2016-01-18T03:12:00Z,27.4847,-97.3181,1021.7,1111122 
TCOON,ioos:station:TCOON:013:1,2016-01-18T04:12:00Z,27.4847,-97.3181,1022.7,1111122 
TCOON,ioos:station:TCOON:013:1,2016-01-18T05:12:00Z,27.4847,-97.3181,1023.1,1111122 
TCOON,ioos:station:TCOON:013:1,2016-01-18T06:12:00Z,27.4847,-97.3181,1023.2,1111122 
TCOON,ioos:station:TCOON:013:1,2016-01-18T07:12:00Z,27.4847,-97.3181,1022.7,1111122 
TCOON,ioos:station:TCOON:013:1,2016-01-18T08:12:00Z,27.4847,-97.3181,1022.5,1111122 
TCOON,ioos:station:TCOON:013:1,2016-01-18T09:18:00Z,27.4847,-97.3181,1022.4,1111122 
TCOON,ioos:station:TCOON:013:1,2016-01-18T10:12:00Z,27.4847,-97.3181,1023.3,1111122 
TCOON,ioos:station:TCOON:013:1,2016-01-18T11:12:00Z,27.4847,-97.3181,1023.7,1111122 
TCOON,ioos:station:TCOON:013:1,2016-01-18T12:12:00Z,27.4847,-97.3181,1024.7,1111122 
TCOON,ioos:station:TCOON:013:1,2016-01-18T13:12:00Z,27.4847,-97.3181,1025.4,1111122 
TCOON,ioos:station:TCOON:013:1,2016-01-18T14:12:00Z,27.4847,-97.3181,1026.2,1111122 
TCOON,ioos:station:TCOON:013:1,2016-01-18T15:12:00Z,27.4847,-97.3181,1027.3,1111122 
TCOON,ioos:station:TCOON:013:1,2016-01-18T16:12:00Z,27.4847,-97.3181,1028.3,1111122 
TCOON,ioos:station:TCOON:013:1,2016-01-18T17:12:00Z,27.4847,-97.3181,1028.4,1111122 
TCOON,ioos:station:TCOON:013:1,2016-01-18T18:12:00Z,27.4847,-97.3181,1027.1,1111122 
TCOON,ioos:station:TCOON:013:1,2016-01-18T21:12:00Z,27.4847,-97.3181,1025.5,1111122 
TCOON,ioos:station:TCOON:013:1,2016-01-18T22:12:00Z,27.4847,-97.3181,1025.6,1111122 
TCOON,ioos:station:TCOON:013:1,2016-01-19T00:12:00Z,27.4847,-97.3181,1025.9,1111122 
TCOON,ioos:station:TCOON:013:1,2016-01-19T01:12:00Z,27.4847,-97.3181,1026.3,1111122 
TCOON,ioos:station:TCOON:013:1,2016-01-19T04:12:00Z,27.4847,-97.3181,1027.0,1111122 
TCOON,ioos:station:TCOON:013:1,2016-01-19T05:12:00Z,27.4847,-97.3181,1026.8,1111122 
TCOON,ioos:station:TCOON:013:1,2016-01-19T06:12:00Z,27.4847,-97.3181,1026.1,1111122 
TCOON,ioos:station:TCOON:013:1,2016-01-19T07:12:00Z,27.4847,-97.3181,1025.6,1111122 
TCOON,ioos:station:TCOON:013:1,2016-01-19T08:12:00Z,27.4847,-97.3181,1025.1,1111122 
TCOON,ioos:station:TCOON:013:1,2016-01-19T09:18:00Z,27.4847,-97.3181,1024.4,1111122 
TCOON,ioos:station:TCOON:013:1,2016-01-19T10:12:00Z,27.4847,-97.3181,1023.9,1111122 
TCOON,ioos:station:TCOON:013:1,2016-01-19T12:12:00Z,27.4847,-97.3181,1023.1,1111122 
TCOON,ioos:station:TCOON:013:1,2016-01-19T13:12:00Z,27.4847,-97.3181,1023.8,1111122 
TCOON,ioos:station:TCOON:013:1,2016-01-19T14:12:00Z,27.4847,-97.3181,1024.3,1111122 
TCOON,ioos:station:TCOON:013:1,2016-01-19T15:18:00Z,27.4847,-97.3181,1024.5,1111122 
TCOON,ioos:station:TCOON:013:1,2016-01-19T16:18:00Z,27.4847,-97.3181,1024.9,1111122 
TCOON,ioos:station:TCOON:013:1,2016-01-19T17:12:00Z,27.4847,-97.3181,1024.9,1111122 
TCOON,ioos:station:TCOON:013:1,2016-01-19T18:12:00Z,27.4847,-97.3181,1024.1,1111122 
TCOON,ioos:station:TCOON:013:1,2016-01-19T19:12:00Z,27.4847,-97.3181,1022.7,1111122 
TCOON,ioos:station:TCOON:013:1,2016-01-19T20:12:00Z,27.4847,-97.3181,1021.3,1111122 
TCOON,ioos:station:TCOON:013:1,2016-01-19T21:18:00Z,27.4847,-97.3181,1020.5,1111122 
TCOON,ioos:station:TCOON:013:1,2016-01-19T22:12:00Z,27.4847,-97.3181,1020.4,1111122 
TCOON,ioos:station:TCOON:013:1,2016-01-20T01:12:00Z,27.4847,-97.3181,1020.6,1111122 
TCOON,ioos:station:TCOON:013:1,2016-01-20T03:12:00Z,27.4847,-97.3181,1020.9,1111122 
TCOON,ioos:station:TCOON:013:1,2016-01-20T04:18:00Z,27.4847,-97.3181,1021.1,1111122 
TCOON,ioos:station:TCOON:013:1,2016-01-20T05:12:00Z,27.4847,-97.3181,1021.1,1111122 
TCOON,ioos:station:TCOON:013:1,2016-01-20T07:18:00Z,27.4847,-97.3181,1020.6,1111122 
TCOON,ioos:station:TCOON:013:1,2016-01-20T09:24:00Z,27.4847,-97.3181,1020.1,1111122 
TCOON,ioos:station:TCOON:013:1,2016-01-20T11:18:00Z,27.4847,-97.3181,1020.0,1111122 
TCOON,ioos:station:TCOON:013:1,2016-01-20T13:24:00Z,27.4847,-97.3181,1020.7,1111122 
TCOON,ioos:station:TCOON:013:1,2016-01-21T04:18:00Z,27.4847,-97.3181,1016.0,1111122 
TCOON,ioos:station:TCOON:013:1,2016-01-21T06:18:00Z,27.4847,-97.3181,1015.2,1111122 
TCOON,ioos:station:TCOON:013:1,2016-01-21T08:18:00Z,27.4847,-97.3181,1014.2,1111122 
TCOON,ioos:station:TCOON:013:1,2016-01-21T10:18:00Z,27.4847,-97.3181,1013.7,1111122 
TCOON,ioos:station:TCOON:013:1,2016-01-21T16:30:00Z,27.4847,-97.3181,1014.4,1111122 
TCOON,ioos:station:TCOON:013:1,2016-01-22T14:36:00Z,27.4847,-97.3181,1027.1,1111122 
TCOON,ioos:station:TCOON:013:1,2016-01-22T15:18:00Z,27.4847,-97.3181,1027.7,1111122 
TCOON,ioos:station:TCOON:013:1,2016-01-22T16:18:00Z,27.4847,-97.3181,1028.3,1111122 
TCOON,ioos:station:TCOON:013:1,2016-01-22T17:12:00Z,27.4847,-97.3181,1028.3,1111122 
TCOON,ioos:station:TCOON:013:1,2016-01-22T18:18:00Z,27.4847,-97.3181,1027.3,1111122 
TCOON,ioos:station:TCOON:013:1,2016-01-22T19:18:00Z,27.4847,-97.3181,1025.8,1111122 
TCOON,ioos:station:TCOON:013:1,2016-01-22T20:12:00Z,27.4847,-97.3181,1024.7,1111122 
TCOON,ioos:station:TCOON:013:1,2016-01-22T21:18:00Z,27.4847,-97.3181,1024.3,1111122 
TCOON,ioos:station:TCOON:013:1,2016-01-22T22:12:00Z,27.4847,-97.3181,1024.1,1111122 
TCOON,ioos:station:TCOON:013:1,2016-01-22T23:12:00Z,27.4847,-97.3181,1024.2,1111122 
TCOON,ioos:station:TCOON:013:1,2016-01-23T00:12:00Z,27.4847,-97.3181,1024.7,1111122 
TCOON,ioos:station:TCOON:013:1,2016-01-23T01:12:00Z,27.4847,-97.3181,1025.5,1111122 
TCOON,ioos:station:TCOON:013:1,2016-01-23T02:12:00Z,27.4847,-97.3181,1026.4,1111122 
TCOON,ioos:station:TCOON:013:1,2016-01-23T03:12:00Z,27.4847,-97.3181,1027.0,1111122 
TCOON,ioos:station:TCOON:013:1,2016-01-23T04:18:00Z,27.4847,-97.3181,1027.0,1111122 
TCOON,ioos:station:TCOON:013:1,2016-01-23T05:12:00Z,27.4847,-97.3181,1027.3,1111122 
TCOON,ioos:station:TCOON:013:1,2016-01-23T06:12:00Z,27.4847,-97.3181,1027.0,1111122 
TCOON,ioos:station:TCOON:013:1,2016-01-23T07:12:00Z,27.4847,-97.3181,1026.7,1111122 
TCOON,ioos:station:TCOON:013:1,2016-01-23T08:12:00Z,27.4847,-97.3181,1026.3,1111122 
TCOON,ioos:station:TCOON:013:1,2016-01-23T09:24:00Z,27.4847,-97.3181,1026.1,1111122 
TCOON,ioos:station:TCOON:013:1,2016-01-23T10:12:00Z,27.4847,-97.3181,1026.0,1111122 
TCOON,ioos:station:TCOON:013:1,2016-01-23T11:12:00Z,27.4847,-97.3181,1026.1,1111122 
TCOON,ioos:station:TCOON:013:1,2016-01-23T12:12:00Z,27.4847,-97.3181,1026.6,1111122 